This is the latest recevied weather packets stored in our database for station/object OZ1IEP-5. If no packets are shown the sender has not sent any weather packets the latest 10 day(s).
| Time | Temp. | Humidity | Pressure | Rain* | Wind** | Luminosity | Snow |
|---|---|---|---|---|---|---|---|
| 1787673611 | 21.67° C | 45% | 1019.3 hPa | 0 mm | - | 42 W/m² | - |
| 1787673006 | 21.67° C | 39% | 1019.4 hPa | 0 mm | - | 46 W/m² | - |
| 1787672406 | 22.22° C | 39% | 1019.4 hPa | 0 mm | - | 102 W/m² | - |
| 1787671808 | 22.22° C | 41% | 1019.4 hPa | 0 mm | - | 116 W/m² | - |
| 1787671206 | 22.22° C | 42% | 1019.4 hPa | 0 mm | - | 111 W/m² | - |
| 1787670606 | 22.22° C | 49% | 1019.4 hPa | 0 mm | - | 54 W/m² | - |
| 1787670008 | 22.22° C | 51% | 1019.4 hPa | 0 mm | - | 102 W/m² | - |
| 1787669406 | 22.22° C | 51% | 1019.3 hPa | 0 mm | - | 406 W/m² | - |
| 1787668805 | 22.22° C | 50% | 1019.3 hPa | 0 mm | - | 230 W/m² | - |
| 1787668208 | 22.22° C | 51% | 1019.3 hPa | 0 mm | - | 84 W/m² | - |
| 1787667606 | 22.78° C | 49% | 1019.3 hPa | 0 mm | - | 552 W/m² | - |
| 1787667005 | 23.33° C | 50% | 1019.2 hPa | 0 mm | - | 88 W/m² | - |
| 1787666408 | 23.33° C | 48% | 1019.3 hPa | 0 mm | - | 610 W/m² | - |
| 1787665806 | 23.89° C | 48% | 1019.3 hPa | 0 mm | - | 169 W/m² | - |
| 1787665206 | 23.89° C | 50% | 1019.3 hPa | 0 mm | - | 636 W/m² | - |
| 1787664608 | 23.89° C | 47% | 1019.2 hPa | 0 mm | - | 621 W/m² | - |
| 1787664005 | 23.89° C | 49% | 1019.3 hPa | 0 mm | - | 621 W/m² | - |
| 1787663406 | 23.89° C | 48% | 1019.3 hPa | 0 mm | - | 666 W/m² | - |
| 1787662808 | 23.89° C | 50% | 1019.3 hPa | 0 mm | - | 694 W/m² | - |
| 1787662205 | 23.33° C | 50% | 1019.3 hPa | 0 mm | - | 731 W/m² | - |
| 1787661606 | 23.33° C | 51% | 1019.3 hPa | 0 mm | - | 740 W/m² | - |
| 1787661009 | 23.33° C | 51% | 1019.3 hPa | 0 mm | - | 371 W/m² | - |
| 1787660406 | 22.78° C | 54% | 1019.3 hPa | 0 mm | - | 628 W/m² | - |
| 1787659805 | 22.22° C | 55% | 1019.3 hPa | 0 mm | - | 765 W/m² | - |
| 1787659209 | 22.78° C | 52% | 1019.3 hPa | 0 mm | - | 877 W/m² | - |
* Rain latest hour (hover to see other rain measurements)
** Current wind speed in m/s (hover to see current wind gust speed)